[[{"header":{"parameterUnit":"m.s-1","parameterCategory":1,"la1":30.2991,"la2":30.254,"lo1":-89.0895,"lo2":-89.0444,"dy":0.0017,"dx":0.0017,"nx":28,"ny":28,"refTime":"2025-08-28T09:00:00:Z","depth":0,"parameterNumber":2,"parameterNumberName":"U-component_of_WINDS"},"data":[0,0,0,0,0,0,0,0,0,0,0,0,0,0,0,0,0,0,0,0,0,0,0,0,0,0,0,0,0,0,0,0,0,0,0,0,0,0,0,0,0,0,0,0,0,0,0,0,0,0,0,0,0,0,0,0,0,0,0.8395,0.8393,0,0.8189,0.8187,0.8184,0.8063,0.8062,0.8062,0.8061,0.7842,0.7836,0.7831,0,0,0,0,0,0,0,0,0,0,0,0,0,0.8673,0.8669,0.8395,0.8393,0.839,0.819,0.8187,0.8184,0.8063,0.8062,0.8061,0.8061,0.7843,0.7837,0.7831,0,0,0,0,0,0,0,0,0,0,0,0,0,0.8518,0.8667,0.8396,0.8306,0.8296,0.819,0.8187,0.8183,0.8063,0.8062,0.8061,0.8061,0.7845,0.7838,0.783,0.7795,0,0,0.7805,0.7802,0,0,0,0,0,0,0,0,0.8527,0.8508,0.8321,0.8312,0.83,0.8151,0.8204,0.8053,0.8063,0.8151,0.8061,0.806,0.7945,0.7928,0.7891,0.7785,0.7775,0.7804,0.7799,0.7796,0.7794,0,0,0,0,0,0,0,0.8538,0.8516,0.8313,0.8319,0.8306,0.8272,0.8249,0.8175,0.8054,0.8143,0.8134,0.8112,0.7938,0.7899,0.7885,0.7772,0.7805,0.7797,0.7792,0.7789,0.7623,0.7623,0,0,0,0,0,0,0.8565,0.8526,0.832,0.8307,0.8414,0.8268,0.8242,0.8199,0.8055,0.8032,0.8112,0.8107,0.7913,0.7895,0.7877,0.7824,0.7796,0.7789,0.7784,0.7623,0.7623,0.7624,0,0,0,0,0,0,0.8571,0.8547,0.8328,0.8414,0.8384,0.8264,0.8217,0.8196,0.8156,0.8032,0.8009,0.8095,0.7912,0.7888,0.7816,0.7815,0.7785,0.7778,0.7622,0.7623,0.7623,0.7721,0,0,0,0,0,0,0.858,0.8551,0.8539,0.8415,0.838,0.8274,0.8217,0.8192,0.8144,0.8134,0.8009,0.7988,0.791,0.7829,0.7808,0.7803,0.7771,0.7622,0.7622,0.7623,0.7717,0.7725,0.7732,0,0,0,0,0,0.859,0.8573,0.8539,0.8515,0.8363,0.8275,0.8254,0.8167,0.8144,0.8129,0.8049,0.7992,0.7819,0.7823,0.7798,0.7791,0.7621,0.7622,0.7623,0.7714,0.7724,0.7731,0,0,0,0,0,0,0.8698,0.8556,0.8516,0.8459,0.838,0.8254,0.8233,0.818,0.8104,0.8098,0.799,0.7963,0.79,0.7838,0.7845,0.7748,0.7713,0.771,0.7791,0.7799,0.7806,0.7821,0.7765,0,0,0,0,0,0.8716,0.8659,0.8536,0.8498,0.8461,0.8354,0.8313,0.8252,0.8165,0.813,0.8044,0.7959,0.7885,0.7839,0.7764,0.7708,0.7677,0.7691,0.7698,0.7704,0.7702,0.7664,0.7668,0.7627,0.7627,0.7627,0,0,0.875,0.8666,0.8636,0.8517,0.8449,0.8389,0.8327,0.8267,0.822,0.812,0.8047,0.7981,0.7878,0.7814,0.7781,0.776,0.7706,0.7706,0.7712,0.7705,0.7665,0.7669,0.7673,0.7627,0.7627,0.7627,0,0,0.8783,0.8715,0.8675,0.8608,0.8506,0.8435,0.8425,0.8307,0.826,0.8186,0.8108,0.8049,0.7925,0.7855,0.7803,0.7807,0.775,0.7785,0.7822,0.7786,0.7789,0.7792,0.7791,0.7792,0.7783,0.7784,0.7784,0,0.8839,0.8749,0.866,0.8604,0.8552,0.8461,0.8417,0.8355,0.8233,0.8198,0.8177,0.8018,0.7943,0.7859,0.786,0.7822,0.7804,0.7799,0.7797,0.7798,0.7799,0.7796,0.7797,0.7788,0.7788,0.7787,0.7787,0,0.882,0.8759,0.8738,0.8625,0.8571,0.8522,0.8421,0.8377,0.8321,0.8251,0.8174,0.808,0.7984,0.796,0.7904,0.7867,0.7857,0.7818,0.7781,0.7809,0.7805,0.7804,0.7795,0.7794,0.7792,0.7791,0,0,0.8915,0.8754,0.8747,0.8694,0.8574,0.8523,0.8467,0.8375,0.8338,0.8256,0.8204,0.8101,0.8064,0.8005,0.7939,0.7909,0.7915,0.7873,0.7869,0.7882,0.7864,0.7893,0.7894,0.7877,0.7877,0.7876,0.7872,0,0.8929,0.8829,0.8746,0.8674,0.8614,0.8526,0.8477,0.8396,0.8329,0.8265,0.8189,0.8117,0.8075,0.8038,0.8004,0.7922,0.7909,0.7921,0.7824,0.7822,0.7851,0.7892,0.7923,0.7924,0.787,0.787,0.787,0,0.8932,0.8856,0.878,0.8664,0.8636,0.8594,0.8501,0.8443,0.8348,0.8301,0.8235,0.8167,0.81,0.8071,0.7975,0.7985,0.794,0.7893,0.7891,0.7877,0.7847,0.7877,0.7922,0.7922,0.7867,0.7867,0.7867,0,0.9006,0.8884,0.8822,0.8779,0.8644,0.8616,0.8557,0.8462,0.8411,0.8329,0.8294,0.8205,0.8156,0.8087,0.7995,0.7983,0.7908,0.7872,0.7864,0.7866,0.7851,0.7853,0.7888,0.7826,0.7826,0.7826,0.7826,0,0.9029,0.8985,0.8853,0.8815,0.8762,0.8665,0.8614,0.8547,0.8463,0.8407,0.8325,0.8273,0.8157,0.809,0.8018,0.7948,0.7927,0.7884,0.7865,0.789,0.7896,0.7858,0.7855,0.7826,0.7826,0.7826,0.7826,0,0.9102,0.9013,0.8939,0.8817,0.8785,0.8751,0.8644,0.8601,0.853,0.846,0.8438,0.8324,0.8241,0.8144,0.8028,0.7979,0.7915,0.7888,0.7948,0.7936,0.7934,0.7934,0.7944,0.7939,0.7884,0.7885,0.7885,0,0.9122,0.9086,0.8961,0.8919,0.8863,0.8797,0.8745,0.8648,0.8596,0.8484,0.8454,0.8366,0.829,0.8161,0.8066,0.7976,0.7945,0.7954,0.7931,0.7957,0.7942,0.7945,0.7939,0.796,0.7961,0.7962,0.7963,0,0.9165,0.9123,0.9053,0.8967,0.8908,0.8835,0.8758,0.8728,0.8614,0.856,0.8475,0.8417,0.83,0.8211,0.811,0.8045,0.7984,0.7972,0.7964,0.7989,0.8025,0.8003,0.7963,0.7971,0.7971,0.797,0.7969,0.7969,0.921,0.9173,0.9079,0.9003,0.8936,0.8865,0.8819,0.8742,0.8671,0.857,0.8516,0.8432,0.8334,0.8192,0.8129,0.806,0.8039,0.8029,0.8026,0.8025,0.8031,0.8038,0.8041,0.8041,0.804,0.804,0.804,0,0.9247,0.9182,0.9114,0.901,0.8949,0.89,0.8812,0.8763,0.8692,0.8607,0.8535,0.8436,0.835,0.8248,0.8154,0.8118,0.8087,0.8096,0.8096,0.8082,0.8057,0.8071,0.8122,0.8122,0.8122,0.8122,0.8122,0.8122,0.9259,0.9194,0.914,0.9039,0.8972,0.8892,0.8846,0.8779,0.8711,0.8606,0.8535,0.847,0.8377,0.8276,0.8193,0.8164,0.8133,0.815,0.8113,0.8091,0.8084,0.8077,0.809,0.8144,0.8144,0.8143,0.8143,0.8143]},{"header":{"parameterUnit":"m.s-1","parameterCategory":1,"la1":30.2991,"la2":30.254,"lo1":-89.0895,"lo2":-89.0444,"dy":0.0017,"dx":0.0017,"nx":28,"ny":28,"refTime":"2025-08-28T09:00:00:Z","depth":0,"parameterNumber":3,"parameterNumberName":"V-component_of_WINDS"},"data":[0,0,0,0,0,0,0,0,0,0,0,0,0,0,0,0,0,0,0,0,0,0,0,0,0,0,0,0,0,0,0,0,0,0,0,0,0,0,0,0,0,0,0,0,0,0,0,0,0,0,0,0,0,0,0,0,0,0,7.9735,7.9737,0,7.9952,7.9954,7.9957,7.9966,7.9963,7.9961,7.9958,8.0171,8.0179,8.0187,0,0,0,0,0,0,0,0,0,0,0,0,0,7.9318,7.9326,7.9735,7.9738,7.974,7.9951,7.9954,7.9957,7.9966,7.9963,7.996,7.9957,8.0169,8.0178,8.0188,0,0,0,0,0,0,0,0,0,0,0,0,0,7.9513,7.9328,7.9734,7.9771,7.9776,7.9951,7.9954,7.9958,7.9967,7.9963,7.9959,7.9956,8.0166,8.0177,8.0189,8.034,0,0,8.0226,8.0231,0,0,0,0,0,0,0,0,7.9502,7.9529,7.9763,7.9768,7.9775,7.9928,7.9886,8.0086,7.9968,7.9894,7.9958,7.9954,8.0093,8.0111,8.016,8.035,8.0359,8.0227,8.0235,8.024,8.0243,0,0,0,0,0,0,0,7.9489,7.9519,7.982,7.9766,7.9773,7.9772,7.9796,7.9924,8.0012,7.99,7.9902,7.9928,8.0095,8.0148,8.0165,8.0362,8.0227,8.0238,8.0245,8.025,8.0684,8.0688,0,0,0,0,0,0,7.947,7.9508,7.9814,7.9827,7.9627,7.9783,7.9809,7.9883,8.0011,8.0027,7.9931,7.9927,8.0129,8.015,8.0172,8.0355,8.024,8.0251,8.0258,8.068,8.0685,8.0689,0,0,0,0,0,0,7.9461,7.9497,7.9805,7.9668,7.9707,7.9794,7.9876,7.9889,7.9941,8.0034,8.0048,7.9969,8.0127,8.0155,8.0298,8.0363,8.0256,8.0267,8.0674,8.0681,8.0687,8.0724,0,0,0,0,0,0,7.9449,7.9494,7.9554,7.9669,7.9715,7.9931,7.9881,7.9896,7.9963,7.9961,8.0073,8.0088,8.0126,8.028,8.031,8.0377,8.0277,8.0669,8.0677,8.0685,8.0717,8.0731,8.0742,0,0,0,0,0,7.9434,7.9555,7.9557,7.9594,7.9793,7.9934,7.996,8.0004,7.9969,8.0028,8.0087,8.0085,8.0351,8.0295,8.0329,8.04,8.0665,8.0675,8.0684,8.0711,8.0728,8.0742,0,0,0,0,0,0,7.9442,7.9571,7.9575,7.9738,7.9825,7.9936,8.0013,8.002,8.0117,8.0111,8.0158,8.0183,8.0325,8.0377,8.0312,8.0551,8.0503,8.052,8.0512,8.0529,8.0541,8.0525,8.0287,0,0,0,0,0,7.9464,7.9571,7.9676,7.9809,7.9853,7.9925,7.9989,8.0015,8.0106,8.0143,8.0212,8.0298,8.0401,8.0468,8.0568,8.0725,8.0747,8.079,8.0803,8.0813,8.0826,8.091,8.093,8.0721,8.0721,8.0721,0,0,7.9508,7.9591,7.9656,7.9813,7.9884,7.999,7.9957,8.0071,8.015,8.0159,8.0299,8.0353,8.0452,8.0602,8.0671,8.0649,8.0889,8.0825,8.0832,8.0841,8.0922,8.0942,8.0959,8.0728,8.0726,8.0725,0,0,7.9643,7.9718,7.9836,7.9908,8.0017,8.0064,8.0092,8.0202,8.0239,8.038,8.0389,8.0481,8.0658,8.0728,8.0786,8.0945,8.0945,8.0976,8.1041,8.1122,8.1139,8.1154,8.1208,8.1227,8.0989,8.099,8.099,0,7.9683,7.9848,7.9895,8.0011,8.0078,8.0093,8.0211,8.0278,8.0412,8.0456,8.0431,8.0652,8.072,8.0885,8.0924,8.0972,8.1003,8.0963,8.1133,8.1149,8.1163,8.1215,8.1236,8.0993,8.0992,8.0992,8.0992,0,7.9891,8.0005,8.0086,8.0219,8.0295,8.041,8.0472,8.0543,8.0561,8.061,8.0751,8.0834,8.0949,8.0991,8.1009,8.1158,8.1141,8.1124,8.1076,8.1185,8.1235,8.1256,8.0997,8.0996,8.0995,8.0994,0,0,8.0039,8.0195,8.0224,8.0283,8.0403,8.049,8.0604,8.072,8.0779,8.087,8.0965,8.1114,8.1099,8.1165,8.1191,8.1263,8.1381,8.1237,8.124,8.1259,8.1546,8.1557,8.158,8.1382,8.1386,8.1389,8.1537,0,8.0186,8.0394,8.0438,8.0616,8.0719,8.0734,8.0833,8.0916,8.0963,8.1055,8.1106,8.1211,8.1184,8.1224,8.1295,8.1351,8.1439,8.1341,8.1467,8.1471,8.1441,8.1607,8.162,8.1756,8.1557,8.1561,8.1563,0,8.0386,8.0484,8.0673,8.0777,8.0822,8.0911,8.1019,8.1108,8.12,8.1229,8.1303,8.1321,8.1437,8.1385,8.1543,8.1476,8.1529,8.1564,8.1571,8.1583,8.1523,8.1622,8.18,8.182,8.1595,8.1592,8.159,0,8.0472,8.0651,8.0787,8.0837,8.0963,8.1024,8.1079,8.1168,8.1234,8.1327,8.1369,8.1474,8.1531,8.161,8.1655,8.1613,8.1809,8.176,8.1833,8.1832,8.1874,8.187,8.2061,8.191,8.191,8.191,8.1909,0,8.0631,8.0746,8.0828,8.0911,8.1038,8.1086,8.1209,8.1263,8.1341,8.1432,8.1451,8.1535,8.159,8.1681,8.1716,8.184,8.1866,8.1891,8.1898,8.1889,8.1885,8.1924,8.1915,8.1915,8.1914,8.1913,8.1912,0,8.075,8.081,8.0958,8.1065,8.1094,8.1183,8.1272,8.1352,8.1399,8.1514,8.1543,8.1617,8.1725,8.1778,8.1911,8.1935,8.2075,8.2077,8.2044,8.2047,8.2117,8.2109,8.2339,8.237,8.2199,8.2201,8.2202,0,8.0847,8.0936,8.1052,8.1115,8.1172,8.1274,8.1342,8.1391,8.146,8.157,8.1635,8.1745,8.1835,8.2006,8.2069,8.2171,8.2175,8.2248,8.219,8.2177,8.2174,8.2168,8.2176,8.2258,8.226,8.2261,8.2262,0,8.1012,8.1037,8.1136,8.1244,8.1324,8.1411,8.1497,8.1547,8.1609,8.1685,8.1797,8.1867,8.2004,8.2111,8.2217,8.2269,8.2275,8.228,8.2302,8.2293,8.227,8.2281,8.2071,8.2275,8.2273,8.2272,8.2272,8.2271,8.1123,8.1201,8.1295,8.1403,8.1472,8.1551,8.163,8.1688,8.1783,8.19,8.1922,8.204,8.2126,8.227,8.2325,8.2416,8.2399,8.2431,8.2439,8.2446,8.2449,8.2256,8.2435,8.2435,8.2435,8.2435,8.2434,0,8.1287,8.1348,8.1447,8.1567,8.165,8.1652,8.1745,8.1814,8.1919,8.2,8.2089,8.2216,8.2319,8.239,8.2495,8.2553,8.2558,8.2579,8.2574,8.2586,8.2459,8.2429,8.2573,8.2573,8.2572,8.2572,8.2572,8.2572,8.1383,8.1516,8.1551,8.1716,8.1775,8.1893,8.1946,8.2017,8.2082,8.2224,8.2311,8.2357,8.2434,8.2543,8.2637,8.2655,8.2692,8.2712,8.2729,8.2609,8.2595,8.2581,8.2553,8.272,8.272,8.2848,8.2849,8.285]}]]